SCP
0 0 0 0 0 0 0 0 0 0 0 0 0 0 0 0 1 1 1 1 0 0 0 0 0 0 0 0 0 0 0 0 0 0 0 0 0 1 1 0 0 0 0 0
0 0 0 0 0 0 0 0 0 0 0 0 0 0 0 0 0 0 1 1 0 0 0 0 0 0 0 0 0 0 0 0 0 0 0 0 0 0 1 1 0 0 0 0
0 0 0 0 0 0 0 0 0 0 0 0 0 0 0 0 0 0 0 0 0 0 0 0 0 0 0 0 0 0 0 0 0 0 0 0 0 0 0 0 1 0 0 0
0 0 0 0 0 0 0 0 0 0 0 0 0 0 0 0 0 0 0 0 0 0 0 0 0 0 0 0 0 0 0 0 0 0 0 0 0 0 0 0 0 0 1 1
0 0 0 0 0 0 0 0 0 0 0 0 0 0 0 0 0 0 0 0 0 0 0 0 0 0 0 0 0 0 0 0 0 0 0 0 0 0 0 1 0 0 0 0
0 0 0 0 0 0 0 0 0 0 0 0 0 0 0 0 0 0 0 0 0 0 0 0 0 0 0 0 0 0 0 0 0 1 1 1 1 1 1 0 0 0 0 0
0 0 0 0 0 0 0 0 0 0 0 0 0 0 0 0 0 0 0 0 0 0 0 0 0 0 0 0 0 0 0 0 0 0 0 0 1 1 1 1 1 1 0 0
0 0 0 0 0 0 0 0 0 0 0 0 0 0 0 0 0 0 0 0 0 0 0 0 0 0 0 0 0 0 0 0 0 0 0 1 1 1 1 1 1 0 0 0
0 0 0 0 0 0 0 0 0 0 0 0 0 0 0 0 0 0 0 0 0 0 0 0 0 0 0 0 0 0 0 0 0 0 0 0 0 0 0 0 0 0 0 0
0 0 0 0 0 0 0 0 0 0 0 0 0 0 0 0 0 0 0 0 0 0 0 0 0 0 0 0 0 0 0 0 0 0 0 0 0 0 0 0 0 0 0 0
0 0 0 0 0 0 0 0 0 0 0 0 0 0 0 0 0 0 0 0 0 0 0 0 0 0 0 0 0 0 0 0 0 0 0 0 0 0 0 0 0 0 0 0
0 0 0 0 0 0 0 0 0 0 0 0 0 0 0 0 0 0 0 0 0 0 0 0 0 0 0 0 0 0 0 0 0 0 0 0 0 0 0 0 0 0 0 0
0 0 0 0 0 0 0 0 0 0 0 0 0 0 0 0 0 0 0 0 0 0 0 0 0 0 0 0 0 0 0 0 0 0 0 0 0 0 0 0 0 0 0 0
0 0 0 0 0 0 0 0 0 0 0 0 0 0 0 0 0 0 0 0 0 0 0 0 0 0 0 0 0 0 0 0 0 0 0 0 0 0 0 0 0 0 0 0
0 0 0 0 0 0 0 0 0 0 0 0 0 0 0 0 0 0 0 0 0 0 0 0 0 0 0 0 0 0 0 0 0 0 0 0 0 0 0 0 0 0 0 0
0 0 0 0 0 0 0 0 0 0 0 0 0 0 0 0 0 0 0 0 -0 0 0 0 0 0 0 0 0 0 0 0 0 -0 0 0 0 0 0 0 0 0 0 0
0 0 0 0 0 0 0 0 0 0 0 0 0 0 0 0 0 0 0 0 0 0 0 0 0 0 0 0 0 0 0 0 0 0 -0 0 0 0 0 0 0 0 0 0
0 0 0 0 0 0 0 0 0 0 0 -0 0 0 0 0 0 0 0 0 0 0 0 0 0 0 0 0 0 0 0 0 0 0 0 -0 -0 0 0 0 -0 0 0 0
0 0 0 0 0 0 0 0 0 0 0 0 0 0 0 0 0 0 0 0 0 0 0 0 0 0 0 0 0 0 0 0 -0 -0 0 -0 0 0 0 0 0 0 0 0
0 0 0 0 0 0 0 0 0 0 0 0 0 0 0 -0 0 0 0 0 0 0 0 0 0 0 0 0 -0 0 0 -0 -0 -0 0 0 0 0 0 0 0 0 0 0
0 0 0 0 0 0 0 0 0 -0 -0 0 0 0 0 -0 0 0 0 0 0 0 0 0 0 0 0 0 0 0 0 0 -0 -0 -0 0 0 0 0 0 0 0 0 0
0 0 0 0 0 0 0 0 0 -0 -0 -0 0 0 -0 0 0 0 0 0 0 -0 0 0 0 -0 0 -0 0 0 0 0 0 0 0 0 0 0 0 0 0 0 0 0
0 0 -0 -0 0 0 0 0 0 0 -0 -0 0 0 0 0 0 0 0 0 0 0 0 0 0 0 -0 -0 0 0 0 0 0 0 0 0 0 0 0 0 0 0 0 0
0 0 0 0 0 0 0 0 0 0 0 -0 0 0 0 0 0 0 0 0 0 0 0 0 0 -0 0 0 -0 0 0 0 0 0 0 -0 0 0 0 0 0 0 0 0
0 0 0 0 0 0 0 0 0 0 0 0 0 -0 0 0 0 0 0 0 0 0 0 0 -0 -0 -0 -0 -0 -0 0 0 0 0 0 0 0 -0 -0 -0 -0 -0 0 0
0 0 0 0 0 0 0 0 0 0 0 0 0 -0 0 0 0 0 0 0 0 0 0 0 0 0 -0 -0 -0 -0 -0 0 0 0 0 0 -0 -0 -0 0 -0 -0 -0 -0
0 0 0 0 0 0 0 0 0 0 0 0 0 0 0 0 0 0 0 0 0 0 0 0 0 0 0 -0 -0 -0 -0 0 0 0 0 0 0 -0 -0 -0 -0 -0 0 0
Wind_Speed_500mb
2 8 9 3 3 13 10 5 8 7 17 4 11 15 32 45 37 37 29 18 9 4 6 2 3 10 9 12 14 18 21 21 21 24 27 24 21 22 24 22 20 21 24 22
9 6 7 6 15 6 7 9 10 17 12 5 15 31 34 25 31 22 20 13 9 9 13 14 13 18 19 21 20 19 20 14 17 21 26 29 25 22 22 22 16 15 15 11
4 5 9 13 17 25 19 19 15 13 4 5 20 37 47 47 42 35 31 29 23 16 12 13 14 14 22 27 33 30 29 33 37 40 41 38 36 36 34 30 29 24 21 20
5 8 8 2 22 40 40 28 27 20 15 23 30 46 48 41 37 34 33 32 31 31 31 31 30 29 24 19 22 30 35 34 33 36 43 47 51 50 49 46 41 42 43 40
8 6 6 8 8 4 12 13 10 13 16 26 10 1 29 35 31 30 33 35 35 36 37 38 39 41 44 47 49 45 44 43 42 44 47 48 50 51 51 52 51 48 50 53
5 7 6 8 9 3 18 5 5 24 14 17 27 7 7 29 31 30 28 29 35 35 32 29 30 31 37 42 44 46 47 50 50 45 47 52 54 56 53 55 54 53 55 56
4 6 2 6 20 7 9 10 13 32 28 29 11 7 21 33 36 39 44 50 56 61 63 62 61 58 55 51 45 44 41 42 42 47 51 55 56 59 62 62 61 62 61 58
6 9 5 8 11 12 14 17 23 25 25 21 17 24 30 33 40 47 54 61 63 61 62 63 61 62 65 63 60 57 49 52 58 62 62 61 63 63 65 68 69 68 63 61
5 9 3 40 43 33 24 22 24 19 16 16 15 16 23 35 45 52 53 53 58 57 56 54 53 54 59 62 62 58 58 65 70 70 70 71 68 66 68 67 70 69 67 66
10 6 21 35 29 23 16 23 15 15 11 12 13 21 33 42 46 47 49 55 58 58 59 57 54 56 57 55 56 55 58 63 64 64 67 66 66 66 68 70 66 68 67 64
9 8 29 21 18 25 22 17 14 12 13 15 22 33 39 41 41 44 46 48 51 61 61 61 58 60 60 52 48 51 57 61 63 63 62 63 57 56 60 61 59 61 61 54
9 15 25 25 29 19 19 15 13 10 14 24 33 35 36 35 39 42 46 46 50 54 58 59 61 60 58 60 54 59 66 63 61 61 56 57 57 59 57 59 57 51 49 50
20 30 38 35 24 20 25 18 15 18 23 28 31 34 35 38 38 41 40 43 50 49 47 52 64 63 60 63 61 59 60 58 57 59 58 55 55 53 58 54 56 56 51 50
40 43 28 16 24 22 13 13 16 20 25 32 30 29 33 35 36 39 44 44 47 55 63 62 73 80 81 75 75 69 62 57 54 49 48 47 50 50 46 49 46 44 46 47
27 25 33 28 22 13 11 18 18 25 28 25 25 29 32 37 44 49 54 53 54 61 69 76 83 89 92 75 66 62 62 60 51 46 44 39 42 37 36 34 36 41 42 39
41 36 28 22 16 10 17 18 17 19 19 24 31 33 36 37 37 43 55 70 73 71 70 74 82 85 85 68 69 75 70 56 43 35 29 36 33 36 39 41 42 42 40 38
36 35 27 18 8 9 12 11 13 18 24 26 28 27 30 35 45 48 51 58 68 73 65 68 78 86 79 68 72 62 53 41 23 17 21 27 30 27 30 34 33 33 34 32
17 17 14 10 8 8 13 16 20 15 21 24 25 33 36 37 40 50 55 54 60 73 73 68 70 77 84 70 62 54 52 46 48 47 37 32 29 28 25 25 32 39 41 31
21 24 18 11 8 14 22 19 13 14 19 23 27 30 29 33 33 36 50 51 54 73 74 72 67 71 79 83 64 54 54 52 45 39 38 35 32 30 28 30 28 27 28 34
30 21 16 16 18 17 19 21 19 17 20 26 28 30 23 30 35 33 35 44 48 63 65 67 68 67 71 74 88 82 69 58 50 45 40 38 38 33 29 31 23 21 23 25
29 21 17 19 21 26 26 24 24 24 23 21 21 25 20 26 31 39 36 37 43 52 65 59 68 67 64 63 70 72 80 88 86 76 63 50 42 38 33 31 26 23 20 22
26 20 17 19 23 20 17 18 18 18 19 17 16 18 28 18 24 33 36 38 37 46 61 60 60 65 64 64 65 66 68 69 70 75 78 78 76 68 56 43 34 29 26 18
23 20 24 22 14 9 6 4 6 7 15 19 17 21 29 25 27 26 35 41 40 44 56 61 54 57 62 64 64 65 64 63 63 62 61 63 69 75 75 72 64 56 47 37
21 19 16 17 15 16 13 9 5 5 6 17 17 18 21 26 27 27 24 31 40 40 48 60 61 55 58 60 61 60 59 60 60 59 60 60 61 63 65 66 72 70 63 61
20 24 20 17 16 13 20 8 4 10 4 9 11 11 15 21 26 28 25 25 28 36 38 46 56 59 60 56 56 57 56 55 55 54 55 57 59 61 61 61 63 62 62 64
20 21 14 22 21 22 12 4 5 11 9 8 12 10 14 13 21 27 25 24 26 26 33 40 42 51 60 62 61 58 56 55 54 51 49 49 50 51 54 56 57 62 64 63
26 24 25 19 13 10 6 9 7 6 9 11 11 15 22 25 22 18 26 29 23 26 25 31 39 38 45 55 62 63 60 58 55 53 51 47 46 47 48 49 49 50 51 55
Wind_Direction_500mb
233 83 84 222 353 61 86 190 113 302 102 116 133 131 107 110 129 133 135 137 131 35 353 17 290 308 301 329 321 327 326 301 304 317 320 316 320 306 307 307 310 288 281 278
53 77 144 35 345 13 66 149 81 114 74 295 110 83 59 52 83 135 169 179 212 233 215 220 245 267 257 280 273 266 278 277 286 295 301 302 297 294 302 315 324 327 351 293
337 335 67 28 343 78 63 34 118 101 129 65 63 69 62 66 50 41 36 40 39 34 0 331 309 283 271 279 258 268 275 286 294 299 301 300 297 295 298 295 299 304 303 298
184 25 62 214 89 79 75 52 60 69 54 63 110 86 56 42 37 29 18 8 359 350 341 333 326 323 323 315 284 272 275 275 279 282 292 298 299 300 302 298 290 289 290 291
111 137 129 12 20 352 115 46 38 78 46 58 83 65 49 27 20 11 357 348 342 334 327 321 315 313 308 304 299 289 287 285 284 287 287 290 289 293 298 297 295 295 293 287
116 140 187 240 290 45 120 67 2 85 73 50 41 52 285 30 22 11 2 352 341 338 339 333 324 318 309 296 289 287 288 285 281 277 281 282 279 279 285 284 285 291 294 288
125 115 321 269 342 55 112 204 66 63 49 41 59 73 355 349 342 337 334 331 328 323 319 315 311 311 308 301 293 293 291 288 283 277 272 273 273 271 271 276 279 279 283 285
84 93 211 304 22 110 159 112 60 49 60 55 25 359 346 340 339 337 335 331 328 323 318 313 311 310 309 306 306 298 291 286 287 284 282 282 280 277 272 272 274 276 278 280
135 174 101 92 106 105 94 76 88 82 43 15 9 1 343 343 340 338 339 339 336 332 331 329 328 319 306 302 302 300 292 287 287 287 286 285 281 277 274 268 265 266 272 277
84 318 99 97 92 86 85 101 72 48 51 25 26 353 342 339 337 338 340 344 344 343 338 341 340 333 330 318 311 310 306 301 296 291 287 281 275 278 272 270 263 264 271 273
62 148 99 91 93 117 105 75 61 50 33 24 356 348 344 340 342 345 347 351 349 350 339 339 340 337 335 333 326 317 311 309 307 302 295 289 285 280 275 273 269 264 272 268
193 163 124 121 114 96 80 74 89 62 22 3 352 352 351 355 351 347 346 347 342 337 334 337 336 329 324 320 318 313 308 308 308 308 303 297 296 289 277 273 271 261 262 265
140 122 125 117 93 88 102 84 50 18 10 10 3 358 5 357 356 355 357 357 352 352 349 343 339 333 328 321 316 310 306 300 299 306 301 300 299 289 287 278 264 262 262 258
128 127 105 111 105 115 92 55 17 21 22 8 359 5 10 13 12 17 19 18 13 13 11 5 359 353 345 337 330 323 313 302 289 292 304 306 304 294 289 277 271 263 256 260
127 130 120 126 130 96 42 8 9 24 19 20 25 29 32 43 51 43 32 21 15 18 13 6 1 358 354 343 338 333 326 320 312 287 285 304 300 291 286 281 273 274 278 269
125 120 129 129 118 62 9 12 42 46 51 56 62 60 57 46 37 34 33 28 20 15 10 6 3 360 354 350 346 338 334 328 319 301 294 307 304 286 285 286 284 274 272 274
128 120 131 127 109 48 35 57 60 77 75 79 78 52 44 40 37 32 26 23 17 15 7 5 5 7 6 1 353 347 347 345 347 11 356 344 332 317 297 291 290 284 280 285
153 145 149 139 123 108 112 94 89 80 93 85 62 50 42 31 27 28 24 18 13 12 11 12 12 11 18 13 6 14 22 24 27 32 21 11 354 336 325 305 295 302 289 287
155 151 141 121 106 128 119 107 85 73 84 61 47 35 36 30 19 17 20 17 13 12 10 12 15 18 23 29 19 21 21 21 19 10 1 358 350 342 331 316 306 312 314 294
150 145 135 124 131 124 109 92 83 84 70 61 45 35 38 32 22 15 12 14 15 10 10 14 18 21 26 30 40 38 35 29 19 12 9 10 9 3 349 340 327 307 310 312
155 147 134 131 114 110 90 89 78 69 60 48 36 32 20 23 23 22 16 12 11 7 13 15 18 22 24 27 34 38 41 41 38 34 28 21 16 8 2 358 346 342 328 326
153 139 130 134 115 98 95 82 67 65 57 48 31 26 22 28 18 24 25 13 9 8 13 16 17 20 24 27 32 37 39 40 41 40 38 39 41 39 32 23 16 7 354 343
146 132 121 116 122 138 129 124 76 69 62 52 33 24 25 25 18 15 23 19 14 8 14 19 19 18 21 25 27 30 32 35 36 36 37 36 37 37 40 41 43 46 39 36
138 149 149 146 138 142 160 127 115 183 86 48 35 25 20 19 27 19 8 4 10 15 16 22 23 22 22 23 26 27 27 28 30 32 33 33 40 36 34 34 36 39 43 41
146 156 162 168 172 161 158 94 133 90 149 350 357 356 12 20 13 12 10 352 344 2 11 18 22 26 27 25 24 26 27 26 24 25 27 27 28 31 35 34 32 31 32 30
173 168 158 133 147 164 153 63 41 62 96 50 15 338 340 336 357 353 346 353 338 330 357 9 12 20 26 30 29 27 25 24 24 23 22 25 27 26 27 29 28 30 28 28
169 162 159 149 158 186 205 211 287 295 283 314 315 341 2 354 331 339 353 2 336 333 326 355 0 4 18 27 30 28 28 28 25 23 22 21 21 23 25 26 28 29 29 28
Wind_Speed_850mb
2 8 9 3 3 13 10 5 8 7 17 4 11 15 32 45 37 37 29 18 9 4 6 2 3 10 9 12 14 18 21 21 21 24 27 24 21 22 24 22 20 21 24 22
9 6 7 6 15 6 7 9 10 17 12 5 15 31 34 25 31 22 20 13 9 9 13 14 13 18 19 21 20 19 20 14 17 21 26 29 25 22 22 22 16 15 15 11
4 5 9 13 17 25 19 19 15 13 4 5 20 37 47 47 42 35 31 29 23 16 12 13 14 14 22 27 33 30 29 33 37 40 41 38 36 36 34 30 29 24 21 20
5 8 8 2 22 40 40 28 27 20 15 23 30 46 48 41 37 34 33 32 31 31 31 31 30 29 24 19 22 30 35 34 33 36 43 47 51 50 49 46 41 42 43 40
8 6 6 8 8 4 12 13 10 13 16 26 10 1 29 35 31 30 33 35 35 36 37 38 39 41 44 47 49 45 44 43 42 44 47 48 50 51 51 52 51 48 50 53
5 7 6 8 9 3 18 5 5 24 14 17 27 7 7 29 31 30 28 29 35 35 32 29 30 31 37 42 44 46 47 50 50 45 47 52 54 56 53 55 54 53 55 56
4 6 2 6 20 7 9 10 13 32 28 29 11 7 21 33 36 39 44 50 56 61 63 62 61 58 55 51 45 44 41 42 42 47 51 55 56 59 62 62 61 62 61 58
6 9 5 8 11 12 14 17 23 25 25 21 17 24 30 33 40 47 54 61 63 61 62 63 61 62 65 63 60 57 49 52 58 62 62 61 63 63 65 68 69 68 63 61
5 9 3 40 43 33 24 22 24 19 16 16 15 16 23 35 45 52 53 53 58 57 56 54 53 54 59 62 62 58 58 65 70 70 70 71 68 66 68 67 70 69 67 66
10 6 21 35 29 23 16 23 15 15 11 12 13 21 33 42 46 47 49 55 58 58 59 57 54 56 57 55 56 55 58 63 64 64 67 66 66 66 68 70 66 68 67 64
9 8 29 21 18 25 22 17 14 12 13 15 22 33 39 41 41 44 46 48 51 61 61 61 58 60 60 52 48 51 57 61 63 63 62 63 57 56 60 61 59 61 61 54
9 15 25 25 29 19 19 15 13 10 14 24 33 35 36 35 39 42 46 46 50 54 58 59 61 60 58 60 54 59 66 63 61 61 56 57 57 59 57 59 57 51 49 50
20 30 38 35 24 20 25 18 15 18 23 28 31 34 35 38 38 41 40 43 50 49 47 52 64 63 60 63 61 59 60 58 57 59 58 55 55 53 58 54 56 56 51 50
40 43 28 16 24 22 13 13 16 20 25 32 30 29 33 35 36 39 44 44 47 55 63 62 73 80 81 75 75 69 62 57 54 49 48 47 50 50 46 49 46 44 46 47
27 25 33 28 22 13 11 18 18 25 28 25 25 29 32 37 44 49 54 53 54 61 69 76 83 89 92 75 66 62 62 60 51 46 44 39 42 37 36 34 36 41 42 39
41 36 28 22 16 10 17 18 17 19 19 24 31 33 36 37 37 43 55 70 73 71 70 74 82 85 85 68 69 75 70 56 43 35 29 36 33 36 39 41 42 42 40 38
36 35 27 18 8 9 12 11 13 18 24 26 28 27 30 35 45 48 51 58 68 73 65 68 78 86 79 68 72 62 53 41 23 17 21 27 30 27 30 34 33 33 34 32
17 17 14 10 8 8 13 16 20 15 21 24 25 33 36 37 40 50 55 54 60 73 73 68 70 77 84 70 62 54 52 46 48 47 37 32 29 28 25 25 32 39 41 31
21 24 18 11 8 14 22 19 13 14 19 23 27 30 29 33 33 36 50 51 54 73 74 72 67 71 79 83 64 54 54 52 45 39 38 35 32 30 28 30 28 27 28 34
30 21 16 16 18 17 19 21 19 17 20 26 28 30 23 30 35 33 35 44 48 63 65 67 68 67 71 74 88 82 69 58 50 45 40 38 38 33 29 31 23 21 23 25
29 21 17 19 21 26 26 24 24 24 23 21 21 25 20 26 31 39 36 37 43 52 65 59 68 67 64 63 70 72 80 88 86 76 63 50 42 38 33 31 26 23 20 22
26 20 17 19 23 20 17 18 18 18 19 17 16 18 28 18 24 33 36 38 37 46 61 60 60 65 64 64 65 66 68 69 70 75 78 78 76 68 56 43 34 29 26 18
23 20 24 22 14 9 6 4 6 7 15 19 17 21 29 25 27 26 35 41 40 44 56 61 54 57 62 64 64 65 64 63 63 62 61 63 69 75 75 72 64 56 47 37
21 19 16 17 15 16 13 9 5 5 6 17 17 18 21 26 27 27 24 31 40 40 48 60 61 55 58 60 61 60 59 60 60 59 60 60 61 63 65 66 72 70 63 61
20 24 20 17 16 13 20 8 4 10 4 9 11 11 15 21 26 28 25 25 28 36 38 46 56 59 60 56 56 57 56 55 55 54 55 57 59 61 61 61 63 62 62 64
20 21 14 22 21 22 12 4 5 11 9 8 12 10 14 13 21 27 25 24 26 26 33 40 42 51 60 62 61 58 56 55 54 51 49 49 50 51 54 56 57 62 64 63
26 24 25 19 13 10 6 9 7 6 9 11 11 15 22 25 22 18 26 29 23 26 25 31 39 38 45 55 62 63 60 58 55 53 51 47 46 47 48 49 49 50 51 55
Wind_Direction_850mb
233 83 84 222 353 61 86 190 113 302 102 116 133 131 107 110 129 133 135 137 131 35 353 17 290 308 301 329 321 327 326 301 304 317 320 316 320 306 307 307 310 288 281 278
53 77 144 35 345 13 66 149 81 114 74 295 110 83 59 52 83 135 169 179 212 233 215 220 245 267 257 280 273 266 278 277 286 295 301 302 297 294 302 315 324 327 351 293
337 335 67 28 343 78 63 34 118 101 129 65 63 69 62 66 50 41 36 40 39 34 0 331 309 283 271 279 258 268 275 286 294 299 301 300 297 295 298 295 299 304 303 298
184 25 62 214 89 79 75 52 60 69 54 63 110 86 56 42 37 29 18 8 359 350 341 333 326 323 323 315 284 272 275 275 279 282 292 298 299 300 302 298 290 289 290 291
111 137 129 12 20 352 115 46 38 78 46 58 83 65 49 27 20 11 357 348 342 334 327 321 315 313 308 304 299 289 287 285 284 287 287 290 289 293 298 297 295 295 293 287
116 140 187 240 290 45 120 67 2 85 73 50 41 52 285 30 22 11 2 352 341 338 339 333 324 318 309 296 289 287 288 285 281 277 281 282 279 279 285 284 285 291 294 288
125 115 321 269 342 55 112 204 66 63 49 41 59 73 355 349 342 337 334 331 328 323 319 315 311 311 308 301 293 293 291 288 283 277 272 273 273 271 271 276 279 279 283 285
84 93 211 304 22 110 159 112 60 49 60 55 25 359 346 340 339 337 335 331 328 323 318 313 311 310 309 306 306 298 291 286 287 284 282 282 280 277 272 272 274 276 278 280
135 174 101 92 106 105 94 76 88 82 43 15 9 1 343 343 340 338 339 339 336 332 331 329 328 319 306 302 302 300 292 287 287 287 286 285 281 277 274 268 265 266 272 277
84 318 99 97 92 86 85 101 72 48 51 25 26 353 342 339 337 338 340 344 344 343 338 341 340 333 330 318 311 310 306 301 296 291 287 281 275 278 272 270 263 264 271 273
62 148 99 91 93 117 105 75 61 50 33 24 356 348 344 340 342 345 347 351 349 350 339 339 340 337 335 333 326 317 311 309 307 302 295 289 285 280 275 273 269 264 272 268
193 163 124 121 114 96 80 74 89 62 22 3 352 352 351 355 351 347 346 347 342 337 334 337 336 329 324 320 318 313 308 308 308 308 303 297 296 289 277 273 271 261 262 265
140 122 125 117 93 88 102 84 50 18 10 10 3 358 5 357 356 355 357 357 352 352 349 343 339 333 328 321 316 310 306 300 299 306 301 300 299 289 287 278 264 262 262 258
128 127 105 111 105 115 92 55 17 21 22 8 359 5 10 13 12 17 19 18 13 13 11 5 359 353 345 337 330 323 313 302 289 292 304 306 304 294 289 277 271 263 256 260
127 130 120 126 130 96 42 8 9 24 19 20 25 29 32 43 51 43 32 21 15 18 13 6 1 358 354 343 338 333 326 320 312 287 285 304 300 291 286 281 273 274 278 269
125 120 129 129 118 62 9 12 42 46 51 56 62 60 57 46 37 34 33 28 20 15 10 6 3 360 354 350 346 338 334 328 319 301 294 307 304 286 285 286 284 274 272 274
128 120 131 127 109 48 35 57 60 77 75 79 78 52 44 40 37 32 26 23 17 15 7 5 5 7 6 1 353 347 347 345 347 11 356 344 332 317 297 291 290 284 280 285
153 145 149 139 123 108 112 94 89 80 93 85 62 50 42 31 27 28 24 18 13 12 11 12 12 11 18 13 6 14 22 24 27 32 21 11 354 336 325 305 295 302 289 287
155 151 141 121 106 128 119 107 85 73 84 61 47 35 36 30 19 17 20 17 13 12 10 12 15 18 23 29 19 21 21 21 19 10 1 358 350 342 331 316 306 312 314 294
150 145 135 124 131 124 109 92 83 84 70 61 45 35 38 32 22 15 12 14 15 10 10 14 18 21 26 30 40 38 35 29 19 12 9 10 9 3 349 340 327 307 310 312
155 147 134 131 114 110 90 89 78 69 60 48 36 32 20 23 23 22 16 12 11 7 13 15 18 22 24 27 34 38 41 41 38 34 28 21 16 8 2 358 346 342 328 326
153 139 130 134 115 98 95 82 67 65 57 48 31 26 22 28 18 24 25 13 9 8 13 16 17 20 24 27 32 37 39 40 41 40 38 39 41 39 32 23 16 7 354 343
146 132 121 116 122 138 129 124 76 69 62 52 33 24 25 25 18 15 23 19 14 8 14 19 19 18 21 25 27 30 32 35 36 36 37 36 37 37 40 41 43 46 39 36
138 149 149 146 138 142 160 127 115 183 86 48 35 25 20 19 27 19 8 4 10 15 16 22 23 22 22 23 26 27 27 28 30 32 33 33 40 36 34 34 36 39 43 41
146 156 162 168 172 161 158 94 133 90 149 350 357 356 12 20 13 12 10 352 344 2 11 18 22 26 27 25 24 26 27 26 24 25 27 27 28 31 35 34 32 31 32 30
173 168 158 133 147 164 153 63 41 62 96 50 15 338 340 336 357 353 346 353 338 330 357 9 12 20 26 30 29 27 25 24 24 23 22 25 27 26 27 29 28 30 28 28
169 162 159 149 158 186 205 211 287 295 283 314 315 341 2 354 331 339 353 2 336 333 326 355 0 4 18 27 30 28 28 28 25 23 22 21 21 23 25 26 28 29 29 28